This is the latest recevied weather packets stored in our database for station/object N5SRF. If no packets are shown the sender has not sent any weather packets the latest 10 day(s).
| Time | Temp. | Humidity | Pressure | Rain* | Wind** | Luminosity | Snow |
|---|---|---|---|---|---|---|---|
| 1777840989 | 25.56° C | 39% | 1023.5 hPa | 0 mm | - | 648 W/m² | - |
| 1777840686 | 24.44° C | 41% | 1023.8 hPa | 0 mm | - | 313 W/m² | - |
| 1777840384 | 25° C | 42% | 1023.7 hPa | 0 mm | - | 156 W/m² | - |
| 1777840080 | 25° C | 39% | 1023.7 hPa | 0 mm | - | 198 W/m² | - |
| 1777839778 | 26.67° C | 38% | 1023.9 hPa | 0 mm | - | 150 W/m² | - |
| 1777839476 | 26.11° C | 37% | 1024.1 hPa | 0 mm | - | 730 W/m² | - |
| 1777839173 | 26.67° C | 39% | 1024 hPa | 0 mm | - | 760 W/m² | - |
| 1777838870 | 26.67° C | 39% | 1024 hPa | 0 mm | - | 717 W/m² | - |
| 1777838566 | 26.67° C | 40% | 1024.2 hPa | 0 mm | - | 648 W/m² | - |
| 1777838263 | 26.67° C | 40% | 1024.2 hPa | 0 mm | - | 783 W/m² | - |
| 1777837960 | 26.11° C | 42% | 1024.3 hPa | 0 mm | - | 790 W/m² | - |
| 1777837658 | 26.67° C | 40% | 1024.7 hPa | 0 mm | - | 819 W/m² | - |
| 1777837353 | 27.22° C | 39% | 1024.6 hPa | 0 mm | - | 812 W/m² | - |
| 1777837050 | 27.78° C | 38% | 1024.8 hPa | 0 mm | - | 806 W/m² | - |
| 1777836746 | 27.22° C | 44% | 1024.7 hPa | 0 mm | - | 796 W/m² | - |
| 1777836441 | 27.78° C | 40% | 1024.7 hPa | 0 mm | - | 820 W/m² | - |
| 1777836137 | 27.78° C | 39% | 1024.8 hPa | 0 mm | - | 813 W/m² | - |
| 1777835834 | 27.22° C | 39% | 1024.8 hPa | 0 mm | - | 825 W/m² | - |
| 1777835531 | 26.67° C | 40% | 1024.9 hPa | 0 mm | - | 824 W/m² | - |
| 1777835228 | 27.22° C | 39% | 1025.1 hPa | 0 mm | - | 830 W/m² | - |
| 1777834924 | 27.22° C | 43% | 1024.8 hPa | 0 mm | - | 824 W/m² | - |
| 1777834622 | 27.22° C | 43% | 1024.8 hPa | 0 mm | - | 794 W/m² | - |
| 1777834316 | 27.22° C | 42% | 1025 hPa | 0 mm | - | 801 W/m² | - |
| 1777834012 | 27.78° C | 36% | 1025 hPa | 0 mm | - | 456 W/m² | - |
| 1777833709 | 27.78° C | 44% | 1025.3 hPa | 0 mm | - | 845 W/m² | - |
* Rain latest hour (hover to see other rain measurements)
** Current wind speed in m/s (hover to see current wind gust speed)